| DS18B20 | SHTC3 | PZEM-004T | WiFi | ||||||||
|---|---|---|---|---|---|---|---|---|---|---|---|
| ID | Date d/m/Y & Time | data1 สูง | data2 ต่ำ | data3 นอก | temp pcb | hum pcb | Volt | Amp | Watt | rssi | Time |
| 11420 | 10/08/2026 21:54:21 | 30.1  | 30.2  | 28.0  | 31.1  | 67.8  | 230.5  | 0.04  | 4.6  | -75  | 21:54 |
| 11419 | 10/08/2026 21:49:38 | 30.1  | 30.2  | 28.1  | 31.2  | 67.7  | 230.6  | 0.04  | 4.6  | -78  | 21:49 |
| 11418 | 10/08/2026 21:44:55 | 30.1  | 30.2  | 28.1  | 31.1  | 67.8  | 232.5  | 0.04  | 4.6  | -77  | 21:44 |
| 11417 | 10/08/2026 21:40:11 | 30.1  | 30.2  | 28.2  | 31.1  | 67.9  | 228.8  | 0.04  | 4.6  | -74  | 21:40 |
| 11416 | 10/08/2026 21:35:28 | 30.1  | 30.2  | 28.2  | 31.1  | 67.6  | 232.3  | 0.04  | 4.6  | -76  | 21:35 |
| 11415 | 10/08/2026 21:30:45 | 30.2  | 30.2  | 28.3  | 31.2  | 67.7  | 230.6  | 0.04  | 4.6  | -77  | 21:30 |
| 11414 | 10/08/2026 21:26:02 | 30.2  | 30.3  | 28.2  | 31.1  | 67.8  | 230.6  | 0.04  | 4.6  | -75  | 21:26 |
| 11413 | 10/08/2026 21:21:18 | 30.2  | 30.3  | 28.3  | 31.1  | 67.8  | 230.5  | 0.04  | 4.6  | -74  | 21:21 |
| 11412 | 10/08/2026 21:16:35 | 30.2  | 30.3  | 28.4  | 31.2  | 67.8  | 230.7  | 0.04  | 4.6  | -74  | 21:16 |
| 11411 | 10/08/2026 21:11:51 | 30.2  | 30.4  | 28.5  | 31.4  | 67.8  | 230.7  | 0.04  | 4.6  | -73  | 21:11 |
| 11410 | 10/08/2026 21:07:08 | 30.2  | 30.4  | 28.5  | 31.1  | 67.8  | 230.8  | 0.04  | 4.6  | -77  | 21:07 |
| 11409 | 10/08/2026 21:02:25 | 30.3  | 30.4  | 28.7  | 31.3  | 67.7  | 230.4  | 0.04  | 4.6  | -77  | 21:02 |
| 11408 | 10/08/2026 20:57:42 | 30.3  | 30.4  | 28.7  | 31.3  | 67.8  | 230.1  | 0.04  | 4.6  | -75  | 20:57 |
| 11407 | 10/08/2026 20:52:58 | 30.3  | 30.4  | 28.8  | 31.4  | 67.8  | 229.5  | 0.04  | 4.6  | -77  | 20:52 |
| 11406 | 10/08/2026 20:48:15 | 30.4  | 30.4  | 28.9  | 31.3  | 67.8  | 228.4  | 0.04  | 4.6  | -77  | 20:48 |
| 11405 | 10/08/2026 20:43:32 | 30.4  | 30.5  | 28.8  | 31.4  | 67.6  | 230.2  | 0.04  | 4.6  | -76  | 20:43 |
| 11404 | 10/08/2026 20:38:49 | 30.4  | 30.5  | 28.6  | 31.5  | 67.7  | 230.2  | 0.04  | 4.6  | -79  | 20:38 |
| 11403 | 10/08/2026 20:34:06 | 30.4  | 30.5  | 28.7  | 31.5  | 67.7  | 228.6  | 0.04  | 4.6  | -76  | 20:34 |
| 11402 | 10/08/2026 20:29:22 | 30.4  | 30.6  | 28.7  | 31.5  | 67.7  | 230.1  | 0.04  | 4.6  | -75  | 20:29 |
| 11401 | 10/08/2026 20:24:39 | 30.4  | 30.6  | 28.8  | 31.5  | 67.6  | 229.9  | 0.04  | 4.6  | -77  | 20:24 |
| 11400 | 10/08/2026 20:19:56 | 30.5  | 30.6  | 28.9  | 31.4  | 67.7  | 227.6  | 0.04  | 4.6  | -77  | 20:19 |
| 11399 | 10/08/2026 20:15:12 | 30.5  | 30.6  | 28.9  | 31.4  | 67.6  | 227.8  | 0.04  | 4.6  | -79  | 20:15 |
| 11398 | 10/08/2026 20:10:29 | 30.5  | 30.6  | 28.9  | 31.5  | 67.7  | 228.0  | 0.04  | 4.6  | -76  | 20:10 |
| 11397 | 10/08/2026 20:05:46 | 30.5  | 30.6  | 28.8  | 31.5  | 67.7  | 229.4  | 0.04  | 4.6  | -77  | 20:05 |